Showing default

COSMOS 2254, 22689

Orbit data source: Space-Track

COSMOS 2254, 22689 is a payload satellite owned by VKS (CIS) in LEO that was launched on Thu, 24 Jun 1993 UTC via a TSIKLON-3 launch vehicle from the Plesetsk Missile And Space Complex (PKMTR). Payload-class satellites include a variety of spacecraft equipped with specific instruments for various scientific and technological missions. These include communications satellites like Starlink; space stations such as the ISS; scientific satellites like the Hubble; Earth observation satellites from companies like Planet Labs, Umbra, and HawkEye 360; GPS; miniature CubeSats for education and research; and military/defense satellites.

Loading next visibility...
Identifier
22689, 1993-038C
Orbit
LEO
Country
Flag of CISCIS
Related business
Manufacturer
NPO PM
Mission
Defense Communications
Bus & Motor
STRELA-3, Unknown motor
Mass
225 kg wet, 225 kg dry
Launch date (UTC)
1993-06-24 (32 years ago)
Launch vehicle
TSIKLON-3
Launch site
Plesetsk Missile And Space Complex (PKMTR)
Object type
Payload
Rocket body
Debris
Shape & HBR
Cyl, 0.8 m
Radar Cross Section
1.257 m², Large (>1 m²)

Expand to show TLE details & history
Last TLE update: 15 hours ago

TLE from 15 hours ago
0 COSMOS 2254
1 22689U 93038C   25258.79975541  .00000034  00000-0  12622-3 0  9992
2 22689  82.5853  19.9353 0011624 209.4846 268.7533 12.64904864487442
Epoch: 2025-09-15T19:11Z
TLE epoch observation values (Epoch: 2025-09-15T19:11:38.867Z)
Latitude
61.09792°
Longitude
-96.54157°
Altitude
1,413.367 km
Speed
7.159 km/s
True Right ascension
12h 25m 28s
True Declination
60° 57' 52"
Sunlit
Object was in daylight at epoch
Visualization orbit readout
Latitude
Unknown
Longitude
Unknown
Altitude
Unknown
Speed
Unknown
Apparent Right ascension
Unknown
Apparent Declination
Unknown
Sunlit
N/A
Visualization observer readout
Local Sidereal Time
02:35:37
Azimuth
Unknown
Elevation
Unknown
Doppler factor
Unknown
Orbital elements
Apogee altitude
1,409.123 km
Perigee altitude
1,391.04 km
Semi-major axis
7,778.219 km
Eccentricity
0.00116
Inclination
82.5853°
RAAN
19.9353°
Arg. of periapsis
209.4846°
True anomaly
268.62013°
Mean anomaly
268.7533°
Eccentric anomaly
268.68672°
Mean motion
3.1639 °/min
Orbital period
113.78 mins
BSTAR
0.00012622
Loading maneuver chart data...
Computing Atmospheric mass density...
Loading historical data...
Loading historical data...
Loading historical data...
Loading historical data...
Loading historical data...
Loading historical data...
Loading historical data...

Documentation

Showing up to 5 results
|